Theta_e
338 335 332 329 329 325 325 325 323 322 321 319 319 317 317 316 315 314 313 311 310 309
333 332 328 326 326 325 324 323 322 321 319 316 315 314 312 311 311 311 310 308 307 307
329 329 327 327 325 322 318 316 315 314 314 312 311 309 307 306 305 305 305 306 305 305
328 327 325 323 321 317 314 314 312 310 308 306 305 303 302 302 302 301 300 301 302 303
325 323 321 318 317 313 309 308 306 305 303 302 301 300 300 299 299 299 298 299 300 302
321 319 317 313 311 306 303 301 301 300 299 298 298 297 297 297 297 298 298 299 300 302
316 315 312 310 305 302 300 298 297 297 296 296 296 297 297 296 296 297 300 301 303 304
312 311 309 305 302 300 299 297 296 295 294 293 294 297 296 295 296 296 297 299 301 301
310 308 306 303 300 298 296 295 294 292 291 290 293 296 298 296 292 293 294 295 295 301
308 306 304 302 299 296 294 293 291 289 289 289 290 294 294 294 289 290 291 293 294 297
305 304 303 301 298 297 294 292 289 288 287 287 290 293 293 292 287 288 290 293 297 296
304 302 301 300 298 297 295 291 288 287 286 284 284 292 292 288 286 287 287 289 292 293
302 301 300 299 297 297 295 291 289 286 285 289 283 290 291 288 285 285 286 287 289 294
294 293 295 296 297 296 293 289 287 285 283 282 284 284 291 291 285 285 285 286 287 289
Wind_Speed
10 6 7 10 8 7 6 6 6 7 7 6 6 5 5 3 3 4 4 5 4 1
10 11 10 12 10 8 6 6 8 8 8 7 7 7 6 5 6 6 5 5 4 2
12 12 13 11 11 10 8 8 9 9 9 9 9 8 8 6 6 6 5 4 6 4
13 14 13 12 11 10 9 10 12 11 10 9 9 8 7 7 7 6 5 5 5 6
15 14 15 13 12 12 12 12 11 11 11 9 9 8 9 7 6 5 6 6 6 5
15 15 16 15 14 13 14 13 12 11 11 10 9 8 7 6 5 5 5 5 6 5
16 14 15 15 14 14 13 13 12 10 10 8 7 7 6 5 5 5 5 6 5 6
16 16 16 16 15 14 14 12 11 10 9 6 7 6 6 5 5 5 6 6 5 4
15 17 16 16 14 14 13 11 11 10 8 8 7 13 12 7 6 6 6 5 6 4
15 17 15 15 15 13 12 11 10 7 8 9 7 14 12 12 5 5 5 5 5 6
16 16 14 14 13 12 10 10 8 8 7 7 7 13 12 10 5 5 5 6 5 5
15 15 13 13 12 11 12 10 8 6 7 7 6 12 13 8 5 6 6 5 6 6
12 13 13 12 11 10 11 10 7 8 7 11 6 12 13 9 5 6 5 6 6 13
11 11 10 10 11 11 11 9 8 7 5 6 7 8 12 10 4 3 3 4 5 6
Wind_Direction
135 124 131 128 118 104 118 113 106 94 96 97 89 76 72 67 55 60 44 37 26 7
114 130 120 111 108 109 111 100 99 94 93 79 68 66 67 56 49 54 43 38 27 33
124 112 109 107 106 106 97 95 88 76 70 67 66 62 65 51 37 53 24 16 14 4
118 112 109 108 104 95 85 82 79 79 77 70 65 52 59 54 33 38 12 4 357 343
110 109 104 100 95 89 87 77 83 79 74 66 59 48 44 35 13 15 13 352 354 342
111 111 109 99 95 87 87 79 75 75 69 59 47 43 35 24 1 8 9 352 346 1
107 109 106 98 94 92 93 90 80 73 71 62 49 43 34 18 12 14 22 9 22 49
108 109 100 96 95 95 89 86 84 78 62 50 49 32 25 17 25 28 23 13 10 52
105 98 98 101 99 95 89 85 80 69 64 52 45 31 32 34 23 20 24 12 2 5
106 99 102 104 99 97 94 90 82 73 65 56 42 30 28 35 30 31 12 7 3 6
103 104 105 105 106 104 101 95 88 74 60 60 37 27 22 30 27 27 13 359 343 326
110 110 113 112 111 110 103 93 81 69 58 54 24 21 23 30 23 25 7 341 344 348
106 110 111 111 108 107 102 97 85 66 45 48 23 18 23 30 24 24 359 348 355 11
85 89 93 95 102 103 101 94 73 67 40 31 20 8 28 38 41 14 8 24 11 9